STARLINK-34298 (64269 NORAD) Tracking and Keplerian Element Data

This shows tracking and keplerian element data for the satellite.

Feedback or suggestion? Click here.




ElementValue
Catalog64269
NameSTARLINK-34298
Epoch Orbit3163
Epoch Day354.101641
Epoch Year2025
RAAN126.1755
Inclination53.1602
Eccentricity5.52E-05
Argument of Perigee76.5514
Mean Anonmoly283.5548
Mean Motion15.30203877
Decay Rate0.00027369
L11 64269U 25120P 25354.10164100 .00027369 00000+0 93269-3 0 9997
L22 64269 53.1602 126.1755 0000552 76.5514 283.5548 15.30203877 31637



Live tracking and technical data element details for STARLINK-34298 (NORAD 64269). STARLINK-34298 can be tracked NOW for your location showing map with azimuth and elevation plus other details from your city location.







IsCatalogInMostPopularTable: catalog: 64269, numindb: 6
Update: records affected: 1



GetName: 64269 STARLINK-34298

Hit Count: updated at: Sat, 11 Apr 2026 21:05:42 GMT